Location: Caixon
(43.4106°N, 0.0273°E)
Time: 04:36:07
(UTC+00:00)

BREEZE-M DEB (TANK) - Pass Details

Date: 16 October 2021
Orbit: 411 x 18315 km, 53.0° (Epoch: 30 November)

Event Time Altitude Azimuth Distance (km) Brightness Sun altitude
Exits shadow 05:42:03 - 311° (NW) 1,912 4.6 -6.8°
Reaches altitude 10° 05:42:51 10° 316° (NW) 1,519 4.1 -6.6°
Maximum altitude 05:45:33 45° 33° (NNE) 755 3.3 -6.1°
Drops below altitude 10° 05:50:46 10° 107° (ESE) 2,945 7.8 -5.2°
Sets 05:55:33 0° 113° (ESE) 5,225 9.2 -4.3°
